TimeEST,TemperatureF,Dew PointF,Humidity,Sea Level PressureIn,VisibilityMPH,Wind Direction,Wind SpeedMPH,Gust SpeedMPH,PrecipitationIn,Events,Conditions,WindDirDegrees,DateUTC
12:55 AM,24.3,17.1,74,30.32,10.0,South,9.2,-,N/A,,Mostly Cloudy,170,2012-12-31 05:55:00
1:55 AM,24.1,17.2,75,30.30,10.0,SSE,5.8,-,N/A,,Mostly Cloudy,160,2012-12-31 06:55:00
2:55 AM,23.5,17.1,76,30.29,10.0,SSE,6.9,-,N/A,,Scattered Clouds,160,2012-12-31 07:55:00
3:55 AM,25.3,17.8,73,30.28,10.0,South,12.7,-,N/A,,Scattered Clouds,180,2012-12-31 08:55:00
4:55 AM,27.5,19.0,71,30.25,10.0,SSW,13.8,-,N/A,,Mostly Cloudy,200,2012-12-31 09:55:00
5:55 AM,27.3,19.0,71,30.23,10.0,SSW,15.0,-,N/A,,Mostly Cloudy,200,2012-12-31 10:55:00
6:55 AM,28.4,19.8,70,30.23,10.0,SSW,12.7,21.9,N/A,,Mostly Cloudy,200,2012-12-31 11:55:00
7:55 AM,29.1,19.9,69,30.22,10.0,SSW,13.8,-,N/A,,Mostly Cloudy,200,2012-12-31 12:55:00
8:55 AM,30.7,19.9,64,30.20,10.0,SW,12.7,-,N/A,,Overcast,220,2012-12-31 13:55:00
9:55 AM,31.8,20.5,63,30.19,10.0,SSW,13.8,-,N/A,,Overcast,210,2012-12-31 14:55:00
10:55 AM,33.1,21.2,62,30.21,10.0,SW,16.1,-,N/A,,Overcast,220,2012-12-31 15:55:00
11:55 AM,33.3,21.7,63,30.19,10.0,SW,12.7,-,N/A,,Overcast,220,2012-12-31 16:55:00
12:31 PM,32.0,21.2,64,30.16,7.0,SSW,15.0,-,N/A,Snow,Light Snow,200,2012-12-31 17:31:00
12:40 PM,33.8,24.8,70,30.16,1.2,SSW,17.3,-,N/A,Snow,Light Snow,210,2012-12-31 17:40:00
12:49 PM,32.0,24.8,75,30.16,1.5,SSW,15.0,-,N/A,Snow,Light Snow,210,2012-12-31 17:49:00
12:55 PM,31.8,25.5,78,30.16,1.5,SSW,16.1,-,0.00,Snow,Light Snow,210,2012-12-31 17:55:00
12:59 PM,32.0,24.8,75,30.16,0.8,SSW,15.0,-,N/A,Snow,Light Snow,210,2012-12-31 17:59:00
1:11 PM,32.0,26.6,80,30.15,2.8,SSW,17.3,-,N/A,Snow,Light Snow,210,2012-12-31 18:11:00
1:20 PM,32.0,26.6,80,30.13,4.0,SSW,11.5,-,N/A,Snow,Light Snow,210,2012-12-31 18:20:00
1:25 PM,32.0,24.8,75,30.12,3.0,SSW,11.5,-,N/A,Snow,Light Snow,210,2012-12-31 18:25:00
1:28 PM,32.0,24.8,75,30.12,2.0,SSW,10.4,-,N/A,Snow,Light Snow,210,2012-12-31 18:28:00
1:48 PM,32.0,24.8,75,30.10,2.5,SSW,15.0,-,N/A,Snow,Light Snow,210,2012-12-31 18:48:00
1:55 PM,32.4,25.2,75,30.11,2.5,SSW,16.1,-,0.00,Snow,Light Snow,210,2012-12-31 18:55:00
2:10 PM,32.0,24.8,75,30.11,1.5,SW,12.7,-,N/A,Snow,Light Snow,220,2012-12-31 19:10:00
2:27 PM,32.0,26.6,80,30.12,1.0,SSW,11.5,-,N/A,Snow,Light Snow,210,2012-12-31 19:27:00
2:43 PM,32.0,26.6,80,30.12,1.0,SSW,11.5,-,N/A,Snow,Light Snow,210,2012-12-31 19:43:00
2:55 PM,31.6,26.8,82,30.12,1.0,SSW,10.4,-,0.00,Snow,Light Snow,210,2012-12-31 19:55:00
3:08 PM,32.0,26.6,80,30.12,0.8,SSW,10.4,-,N/A,Snow,Light Snow,210,2012-12-31 20:08:00
3:15 PM,32.0,26.6,80,30.12,0.8,SSW,10.4,-,N/A,Snow,Light Snow,210,2012-12-31 20:15:00
3:20 PM,32.0,26.6,80,30.13,1.0,SSW,11.5,-,N/A,Snow,Light Snow,210,2012-12-31 20:20:00
3:31 PM,32.0,28.4,87,30.14,3.0,SSW,12.7,-,N/A,Snow,Light Snow,210,2012-12-31 20:31:00
3:55 PM,32.2,27.3,82,30.14,3.0,SW,10.4,-,0.01,Snow,Light Snow,220,2012-12-31 20:55:00
4:51 PM,32.0,26.6,80,30.12,7.0,SSW,10.4,-,N/A,Snow,Light Snow,200,2012-12-31 21:51:00
5:40 PM,32.0,26.6,80,30.12,6.0,SW,9.2,-,N/A,Snow,Light Snow,220,2012-12-31 22:40:00
5:55 PM,32.5,27.3,81,30.11,10.0,SSW,8.1,-,0.00,,Overcast,210,2012-12-31 22:55:00
6:44 PM,32.0,26.6,80,30.10,10.0,SSW,10.4,-,N/A,,Overcast,210,2012-12-31 23:44:00
6:55 PM,32.7,27.1,80,30.11,10.0,SSW,12.7,-,N/A,,Overcast,210,2012-12-31 23:55:00
7:38 PM,33.8,28.4,81,30.11,10.0,SSW,13.8,-,N/A,,Overcast,200,2013-01-01 00:38:00
7:55 PM,33.3,27.9,81,30.10,10.0,South,15.0,-,N/A,,Overcast,190,2013-01-01 00:55:00
8:04 PM,33.8,28.4,81,30.09,10.0,South,11.5,-,N/A,,Overcast,190,2013-01-01 01:04:00
8:55 PM,33.3,28.0,81,30.10,10.0,SW,10.4,-,N/A,,Overcast,220,2013-01-01 01:55:00
9:55 PM,33.3,27.7,80,30.08,10.0,SW,13.8,-,N/A,,Overcast,220,2013-01-01 02:55:00
10:55 PM,33.3,28.2,82,30.07,10.0,SW,9.2,-,0.00,Snow,Light Snow,220,2013-01-01 03:55:00
11:41 PM,33.8,28.4,81,30.09,7.0,SW,9.2,-,N/A,Rain,Light Rain,230,2013-01-01 04:41:00
11:55 PM,32.9,28.6,84,30.08,3.0,SW,6.9,-,0.00,Snow,Light Snow,220,2013-01-01 04:55:00